TIME,DELAY(SENSOR),PRES,OXYGEN,RAWTEMP,T(OPTODE),TCPHASE,FLUOR,BETA(BETA700),BETA(BETA412),BETA(BETA440),CDOM,C(CSC),ED(ED412.40),ED(ED444.00),ED(ED489.70),ED(ED554.30),LU(LU411.80),LU(LU443.40),LU(LU489.60),LU(LU554.10),COMP,TILTX,TILTY,CHECK
1367639794,5809,828.6199951171875000,41.5913581848144500,654.3002929687500000,4.8154368400573730,54.6887588500976560,53,102,90,79,79,14728,2147757577,2147424795,2148009709,2147873984,2147636516,2147058706,2148256987,2147199168,1198,4,14,43682
1367643390,5806,866.3300170898438000,43.6558990478515600,659.7670288085938000,4.6356449127197270,54.4520492553710940,52,99,87,80,80,14726,2147754358,2147422518,2148010724,2147875602,2147638793,2147057837,2148259181,2147201819,175,4,13,57687
1367646990,5808,870.7299804687500000,44.0352897644043000,662.0845947265625000,4.5593199729919430,54.4197883605957000,54,97,91,79,80,14723,2147756123,2147424448,2148007643,2147873737,2147638464,2147059940,2148257984,2147199835,3323,4,13,6612
1367650590,5810,907.7500000000000000,44.7941284179687500,664.7681884765625000,4.4708671569824220,54.3442802429199200,53,99,86,79,79,14725,2147757686,2147421604,2148008576,2147875410,2147639936,2147058349,2148255945,2147198198,230,4,13,50757
1367654190,5807,914.5300292968750000,44.8965606689453100,665.5886230468750000,4.4438109397888180,54.3411407470703100,52,101,85,78,79,14726,2147756032,2147422948,2148008667,2147874203,2147640548,2147056502,2148256054,2147200082,523,4,13,61491
1367657790,5808,914.5200195312500000,44.3774681091308600,665.1735229492188000,4.4575018882751465,54.4091186523437500,53,99,81,79,79,14724,2147758848,2147421796,2148010148,2147874496,2147640438,2147059593,2148257901,2147197092,3334,4,13,18222
1367661390,5808,945.5499877929688000,46.0905303955078100,667.8073730468750000,4.3706002235412600,54.1964607238769500,52,100,87,78,80,14724,2147756918,2147421440,2148008164,2147874596,2147639469,2147055012,2148252050,2147199003,3211,4,13,18229
1367664990,5810,940.2999877929688000,46.0831909179687500,668.0783081054688000,4.3616580963134770,54.1993408203125000,53,100,87,79,80,14724,2147757869,2147423945,2148010486,2147876397,2147638381,2147058998,2148256950,2147197147,650,4,13,49913
1367668590,5808,943.4400024414062000,45.9914703369140600,668.8494262695312000,4.3362011909484860,54.2204284667968750,52,98,83,79,80,14727,2147753170,2147425344,2148009106,2147875766,2147640722,2147060333,2148261888,2147198409,69,4,13,44145
1367672190,5808,959.7100219726562000,47.7668190002441400,671.2042236328125000,4.2584099769592285,53.9983215332031250,53,100,83,78,80,14724,2147753609,2147421558,2148009526,2147874706,2147639707,2147054473,2148255926,2147194715,781,4,13,24364
1367675790,5808,960.5300292968750000,47.7642593383789060,671.2509765625000000,4.2568612098693850,53.9992294311523440,52,99,93,78,80,14721,2147754788,2147421888,2148006820,2147879131,2147639926,2147060964,2148255753,2147199506,3501,4,13,53523
1367679390,5805,966.4099731445312000,47.6991310119628900,671.4912719726562000,4.2489218711853030,54.0144004821777340,52,98,86,79,80,14726,2147759113,2147423451,2148007762,2147872493,2147638381,2147065069,2148258806,2147199012,3131,4,13,41006
1367682990,5809,989.1199951171875000,49.2867317199707000,675.3024291992188000,4.1228809356689450,53.8345603942871100,53,99,86,78,79,14723,2147758774,2147423104,2148008621,2147876333,2147639771,2147054144,2148261549,2147196470,37,4,13,11614
1367686590,5807,996.8900146484375000,49.2166213989257800,674.4271850585938000,4.1518378257751465,53.8328704833984400,52,100,89,79,81,14724,2147758125,2147423515,2148009755,2147876544,2147639177,2147053997,2148261677,2147198390,608,4,13,64458
1367690190,5808,993.9299926757812000,49.1004905700683600,674.5272827148438000,4.1485271453857420,53.8478088378906250,52,98,86,79,80,14724,2147757824,2147423744,2148013101,2147875657,2147638985,2147052745,2148258240,2147199899,196,4,13,54305
1367693790,5808,1001.3099975585938000,49.0778503417968750,674.3472290039062000,4.1544861793518070,53.8491401672363300,53,97,89,80,80,14724,2147756050,2147420544,2148007725,2147871460,2147641590,2147057124,2148260352,2147197010,3555,4,13,24998
1367697390,5805,1005.7899780273438000,49.2799491882324200,674.6038818359375000,4.1459941864013670,53.8263511657714840,51,98,86,80,80,14724,2147754651,2147424283,2148012242,2147878272,2147642148,2147059830,2148254326,2147204562,3466,4,13,64952
1367700990,5806,1011.7299804687500000,49.4342308044433600,674.0444946289062000,4.1644988059997560,53.7988204956054700,52,99,89,78,79,14721,2147757138,2147425270,2148010322,2147876717,2147642304,2147056868,2148263469,2147200530,3561,4,13,9606
1367704590,5808,1009.9099731445312000,49.0298118591308600,673.1995239257812000,4.1924481391906740,53.8467216491699200,52,98,84,79,80,14722,2147756873,2147420681,2148010377,2147876361,2147641179,2147056603,2148255332,2147202459,738,4,13,57831
1367708190,5807,1012.0200195312500000,48.0228881835937500,672.3864746093750000,4.2193298339843750,53.9788513183593750,52,99,86,79,80,14720,2147757120,2147425353,2148010486,2147876900,2147641636,2147057033,2148257956,2147200402,528,4,13,62743
1367711790,5809,1007.5499877929688000,47.6509017944335940,672.5662841796875000,4.2133851051330570,54.0270118713378900,53,99,86,80,79,14724,2147754450,2147422345,2148008896,2147876516,2147641691,2147059328,2148260699,2147199186,555,4,13,17619
1367715390,5808,1015.2800292968750000,47.8442993164062500,672.2493286132812000,4.2238659858703610,53.9956398010253900,52,99,84,79,80,14721,2147756635,2147426157,2148011245,2147873965,2147641682,2147057289,2148255588,2147201572,322,4,13,61823
1367718990,5806,1012.0200195312500000,47.5536499023437500,672.6917724609375000,4.2092361450195310,54.0449981689453100,53,98,89,79,81,14721,2147756763,2147423131,2148010825,2147878528,2147641014,2147053577,2148256036,2147197028,3522,4,13,51244
1367722590,5808,1008.0900268554688000,48.2555313110351560,673.3895874023438000,4.1861610412597660,53.9561500549316400,53,97,90,80,81,14721,2147757467,2147422948,2148008420,2147874468,2147643675,2147052882,2148255542,2147201197,3259,4,13,24292
1367726190,5807,997.9299926757812000,48.6679306030273440,674.0761718750000000,4.1634521484375000,53.9089393615722660,52,98,85,78,80,14720,2147759277,2147423853,2148009014,2147875172,2147638253,2147052022,2148260918,2147195876,3284,4,13,63464
1367729790,5809,1006.2700195312500000,48.7611503601074200,674.9417114257812000,4.1348152160644530,53.9008216857910160,52,98,84,78,81,14717,2147758272,2147423350,2148009344,2147875346,2147642916,2147054308,2148256914,2147201837,3598,4,13,27824
1367733390,5809,1009.0700073242188000,48.9685287475585940,674.8596801757812000,4.1375288963317870,53.8778381347656250,53,97,87,78,81,14717,2147757988,2147422985,2148009746,2147875620,2147646381,2147051538,2148264859,2147199945,3142,4,13,32374
1367736990,5805,999.4500122070312000,49.0542488098144500,675.5556030273438000,4.1144981384277340,53.8720817565918000,51,99,88,80,79,14716,2147760219,2147425088,2148011236,2147874706,2147642852,2147053915,2148256594,2147196416,674,4,13,21889
1367740590,5808,1001.1400146484375000,49.2320098876953100,675.6099853515625000,4.1126999855041500,53.8440895080566400,52,100,86,79,80,14716,2147760036,2147424274,2148007670,2147874825,2147645120,2147056841,2148257307,2147199478,150,4,13,15356
1367744190,5812,1006.2899780273438000,49.1326789855957000,675.0722045898438000,4.1304969787597660,53.8566398620605500,52,100,82,78,80,14714,2147756854,2147423222,2148009115,2147876169,2147642304,2147057883,2148262189,2147198930,8,4,13,37827
1367747790,5810,1005.2299804687500000,48.8378982543945300,674.3676147460938000,4.1538119316101070,53.8878898620605500,53,98,86,78,81,14717,2147757632,2147423113,2148007917,2147872795,2147643602,2147058733,2148252489,2147195501,158,4,13,51462
1367751390,5810,1008.4699707031250000,48.6634292602539060,674.3046264648438000,4.1558952331542970,53.9095802307128900,52,98,87,80,80,14714,2147758080,2147429842,2148008228,2147875355,2147638482,2147057792,2148258651,2147199542,54,4,13,3013
1367754990,5809,1011.6799926757812000,48.0365791320800800,674.0855102539062000,4.1631431579589840,53.9920082092285160,52,96,85,78,80,14711,2147760832,2147423716,2148011693,2147877184,2147643090,2147059273,2148260598,2147199954,21,4,13,26842
1367758590,5810,1008.1900024414062000,48.3348617553710940,673.7587280273438000,4.1739540100097660,53.9506187438964840,52,102,88,79,80,14706,2147761481,2147423286,2148012361,2147874642,2147638939,2147060123,2148259931,2147199497,47,4,13,43089
1367762190,5809,1008.0700073242188000,48.9798889160156250,675.3632812500000000,4.1208629608154300,53.8758888244628900,52,97,87,78,80,14704,2147760356,2147423305,2148008612,2147875986,2147639387,2147057234,2148258349,2147202093,3548,4,13,32181
1367765790,5808,1007.1300048828125000,48.6478500366210940,675.3660888671875000,4.1207709312438965,53.9233589172363300,52,99,85,78,79,14707,2147758473,2147421778,2148010331,2147873526,2147640155,2147054244,2148259538,2147199250,3514,4,13,18243
1367769390,5809,1000.4500122070312000,49.1759109497070300,676.1851196289062000,4.0936617851257320,53.8607902526855500,52,99,87,78,79,14706,2147757595,2147423853,2148008987,2147876214,2147641590,2147059200,2148263625,2147195803,3362,4,13,54496
1367772990,5808,1005.3599853515625000,48.9572792053222660,675.9053955078125000,4.1029219627380370,53.8914985656738300,52,99,87,78,80,14702,2147760923,2147420635,2148009929,2147871570,2147639990,2147065216,2148259547,2147197924,349,4,13,64563
1367776590,5809,1011.2800292968750000,48.5126495361328100,675.1616821289062000,4.1275348663330080,53.9450988769531250,53,101,87,79,80,14705,2147758884,2147423515,2148008466,2147876873,2147643017,2147058075,2148260022,2147197897,301,4,13,61517
1367780190,5810,1006.2600097656250000,48.6359481811523440,675.4155273437500000,4.1191349029541020,53.9278717041015600,53,97,87,78,79,14702,2147759332,2147424365,2148007012,2147872475,2147642002,2147062774,2148259547,2147202505,300,4,13,18908
1367783790,5809,1010.4400024414062000,48.8739509582519500,675.1986083984375000,4.1263141632080080,53.8929405212402340,52,96,86,80,78,14703,2147755401,2147422701,2148011922,2147877028,2147641444,2147058240,2148257581,2147198363,3533,4,13,5901
1367784655,5805,1012.4400024414062000,48.6426200866699200,675.0681152343750000,4.1306319236755370,53.9198799133300800,52,98,86,79,81,14705,2147757101,2147422418,2148009499,2147873508,2147639990,2147055963,2148256347,2147201417,148,4,13,30823
